FW1747 Weather Reports


Display with metric or nautical units.
time (UTC)temp
F
wind
direction
speed
MPH
gust
MPH
rain 1hr
in
rain 24hr
in
rain mn
in
humidity
%
barometer
mb
20181214211510 50 244 6.0 19.0 0.01 0.01 0.01 69 1004.9
20181214210026 51 225 8.0 15.0 0.00 0.00 0.00 64 1003.9
20181214204506 50 294 5.0 12.0 0.00 0.00 0.00 61 1003.0
20181214203012 51 212 3.0 10.0 0.00 0.00 0.00 59 1002.7
20181214201522 52 257 2.0 7.0 0.00 0.00 0.00 58 1002.6
20181214200005 51 219 3.0 5.0 0.00 0.00 0.00 60 1002.5
20181214194753 50 226 3.0 7.0 0.00 0.00 0.00 65 1002.6
20181214193152 48 203 0.0 3.0 0.00 0.00 0.00 69 1002.7
20181214191612 47 144 0.0 0.0 0.00 0.00 0.00 73 1002.9
20181214190110 46 139 0.0 0.0 0.00 0.00 0.00 75 1003.2
20181214184552 45 127 0.0 1.0 0.00 0.00 0.00 77 1003.4
20181214183147 44 126 1.0 3.0 0.00 0.00 0.00 80 1003.4
20181214181625 42 240 1.0 4.0 0.00 0.00 0.00 84 1003.8
20181214180104 41 243 0.0 0.0 0.00 0.00 0.00 88 1003.5
20181214174607 39 243 0.0 0.0 0.00 0.00 0.00 89 1003.6
20181214173044 39 297 0.0 0.0 0.00 0.00 0.00 91 1003.5
20181214171548 39 297 0.0 0.0 0.00 0.00 0.00 93 1003.7
20181214170036 37 297 0.0 0.0 0.00 0.00 0.00 94 1003.9
20181214164542 36 297 0.0 0.0 0.00 0.00 0.00 95 1004.0
20181214163040 35 297 0.0 0.0 0.00 0.00 0.00 94 1004.2
20181214161529 35 306 0.0 2.0 0.00 0.00 0.00 94 1004.5
20181214160053 35 306 0.0 0.0 0.00 0.00 0.00 93 1004.7
20181214154530 35 314 0.0 3.0 0.00 0.00 0.00 93 1004.5
20181214153114 36 355 0.0 2.0 0.00 0.00 0.00 93 1004.8
20181214151537 36 348 0.0 2.0 0.00 0.00 0.00 92 1005.1
20181214150020 36 345 0.0 3.0 0.00 0.00 0.00 91 1005.5
20181214144542 37 37 1.0 2.0 0.00 0.00 0.00 90 1005.6
20181214143011 38 34 0.0 2.0 0.00 0.00 0.00 90 1006.0
20181214141504 38 200 1.0 3.0 0.00 0.00 0.00 90 1006.3
20181214140203 38 145 0.0 3.0 0.00 0.00 0.00 89 1006.4
20181214134558 38 241 1.0 3.0 0.00 0.00 0.00 87 1006.5
20181214133148 38 110 0.0 2.0 0.00 0.00 0.00 88 1006.9
20181214131637 38 116 0.0 2.0 0.00 0.00 0.00 90 1007.5
20181214130157 38 108 1.0 3.0 0.00 0.00 0.00 89 1007.8
20181214124619 38 38 1.0 3.0 0.00 0.00 0.00 88 1008.3
20181214123126 39 321 0.0 2.0 0.00 0.00 0.00 87 1008.7
20181214121600 39 321 0.0 2.0 0.00 0.00 0.00 87 1009.0
20181214120043 40 321 0.0 3.0 0.00 0.00 0.00 86 1009.6
20181214114613 40 223 1.0 2.0 0.00 0.00 0.00 87 1009.7
20181214113102 39 223 1.0 3.0 0.00 0.00 0.00 88 1010.0
20181214111601 39 223 0.0 2.0 0.00 0.00 0.00 88 1010.3
20181214110035 40 223 1.0 3.0 0.00 0.00 0.00 87 1010.8
20181214104532 40 223 1.0 3.0 0.00 0.00 0.00 86 1011.1
20181214103043 40 246 0.0 2.0 0.00 0.00 0.00 86 1011.2
20181214101531 41 246 0.0 1.0 0.00 0.00 0.00 85 1011.7
20181214100019 41 246 0.0 2.0 0.00 0.00 0.00 85 1011.8
20181214094524 41 246 0.0 2.0 0.00 0.00 0.00 86 1012.1
20181214093012 41 246 0.0 2.0 0.00 0.00 0.00 86 1012.4
20181214090013 41 246 0.0 2.0 0.00 0.00 0.00 85 1012.6
20181214084513 41 246 0.0 3.0 0.00 0.00 0.00 84 1012.8
20181214083134 41 246 1.0 3.0 0.00 0.00 0.00 84 1013.1
20181214081631 41 246 1.0 2.0 0.00 0.00 0.00 83 1013.2
20181214080135 41 246 1.0 2.0 0.00 0.00 0.00 82 1013.4
20181214074653 42 246 1.0 3.0 0.00 0.00 0.00 82 1013.4
20181214073226 42 247 0.0 2.0 0.00 0.00 0.00 83 1013.6
20181214071704 41 247 0.0 2.0 0.00 0.00 0.00 83 1013.7
20181214070218 41 247 0.0 1.0 0.00 0.00 0.00 86 1013.8
20181214064557 40 247 0.0 2.0 0.00 0.00 0.00 87 1014.0
20181214063257 40 254 0.0 0.0 0.00 0.00 0.00 87 1014.3
20181214061658 40 254 0.0 0.0 0.00 0.00 0.00 87 1014.4
20181214060130 40 254 0.0 3.0 0.00 0.00 0.00 87 1014.6
20181214054612 40 254 1.0 3.0 0.00 0.00 0.00 87 1014.7
20181214053112 41 166 1.0 2.0 0.00 0.00 0.00 85 1014.8
20181214051552 42 166 0.0 2.0 0.00 0.00 0.00 82 1015.0
20181214050115 44 165 0.0 2.0 0.00 0.00 0.00 80 1015.1
20181214044556 44 182 1.0 3.0 0.00 0.00 0.00 79 1015.0
20181214043050 44 178 1.0 3.0 0.00 0.00 0.00 80 1015.2
20181214041551 43 190 1.0 3.0 0.00 0.00 0.00 81 1015.5
20181214040121 42 218 0.0 0.0 0.00 0.00 0.00 82 1015.8
20181214034543 43 153 0.0 0.0 0.00 0.00 0.00 81 1015.9
20181214033038 43 153 0.0 0.0 0.00 0.00 0.00 80 1016.0
20181214031549 43 153 0.0 0.0 0.00 0.00 0.00 78 1016.1
20181214030105 44 153 0.0 0.0 0.00 0.00 0.00 76 1016.0
20181214024559 44 153 0.0 0.0 0.00 0.00 0.00 76 1016.2
20181214023101 44 153 0.0 0.0 0.00 0.00 0.00 76 1016.3
20181214021636 44 153 0.0 0.0 0.00 0.00 0.00 77 1016.3
20181214020112 44 153 0.0 0.0 0.00 0.00 0.00 76 1016.3
20181214014613 45 152 0.0 0.0 0.00 0.00 0.00 74 1016.3
20181214013048 46 152 0.0 0.0 0.00 0.00 0.00 73 1016.5
20181214011549 46 152 0.0 0.0 0.00 0.00 0.00 73 1016.7
20181214010030 46 152 0.0 2.0 0.00 0.00 0.00 72 1016.9
20181214004533 47 171 1.0 3.0 0.00 0.00 0.00 70 1017.0
20181214003028 49 171 0.0 2.0 0.00 0.00 0.00 68 1017.2
20181214001531 49 171 0.0 2.0 0.00 0.00 0.00 65 1017.3
20181214000031 50 128 2.0 4.0 0.00 0.00 0.00 64 1017.4
20181213234531 50 119 2.0 4.0 0.00 0.00 0.00 63 1017.6
20181213233021 51 121 1.0 5.0 0.00 0.00 0.00 61 1017.8
20181213231510 51 124 2.0 5.0 0.00 0.00 0.00 62 1018.0
20181213230011 52 178 2.0 5.0 0.00 0.00 0.00 59 1018.2
20181213224509 52 235 1.0 6.0 0.00 0.00 0.00 61 1018.3
20181213223004 52 228 2.0 10.0 0.00 0.00 0.00 59 1018.6
20181213221505 52 205 1.0 4.0 0.00 0.00 0.00 58 1018.9
20181213220157 52 320 2.0 5.0 0.00 0.00 0.00 58 1019.2
20181213214721 53 136 2.0 5.0 0.00 0.00 0.00 58 1019.3
20181213213136 53 253 2.0 6.0 0.00 0.00 0.00 56 1019.6